Home   Weather   London   Past weeks

Flag for Canada Past Weather in London, Ontario, Canada — Yesterday and Last 2 Weeks

Now
50 °F

Fog.


Feels Like: 45 °F
Forecast: 48 / 69 °F
Wind: 13 mph from East

Location: London Weather Station

Current Time: Apr 26, 2017 at 12:38:43 am

Latest Report: Apr 26, 2017 at 12:00 am


Visibility: 1 mi

Pressure: 29.81 "Hg

Humidity: 100%

Dew Point: 50 °F

Location of LondonLocation

Past Weather in London — Graph

°F

London Temperature Yesterday

Maximum temperature yesterday: 64 °F (at 5:00 pm)
Minimum temperature yesterday: 43 °F (at 8:08 am)
Average temperature yesterday: 51 °F

High & Low Weather Summary for the Past Weeks

 TemperatureHumidityPressure
High73 °F (Apr 15, 6:00 pm)100% (Apr 11, 5:00 am)30.54 "Hg (Apr 11, 5:00 am)
Low32 °F (Apr 13, 3:00 am)28% (Apr 23, 5:00 pm)29.76 "Hg (Apr 16, 10:00 am)
Average50 °F77%30.09 "Hg
* Reported Apr 10 11:00 pm — Apr 25 11:00 pm, London, Weather by CustomWeather, © 2017

Note: Actual official high and low records may vary slightly from our data, if they occured in-between our weather recording intervals... More about our weather records

Advertising

London Weather History for the Previous 24 Hours

Scroll right to see more
 ConditionsComfort  
Time TempWeatherWind HumidityBarometerVisibility
11:00 pm
Tue, Apr 25
50 °FFog.12 mph100%29.82 "Hg1 mi
10:50 pm50 °FFog.9 mph100%29.82 "Hg2 mi
10:34 pm50 °FFog.10 mph100%29.82 "Hg4 mi
10:00 pm50 °FFog.12 mph94%29.82 "Hg6 mi
9:00 pm52 °FFog.9 mph94%29.82 "Hg6 mi
8:00 pm54 °FBroken clouds.10 mph88%29.82 "Hg10 mi
7:00 pm55 °FPartly sunny.18 mph88%29.83 "Hg15 mi
6:00 pm61 °FBroken clouds.18 mph77%29.83 "Hg12 mi
5:00 pm64 °FBroken clouds.16 mph73%29.83 "Hg15 mi
4:00 pm63 °FScattered clouds.14 mph77%29.84 "Hg15 mi
3:00 pm61 °FPartly sunny.16 mph77%29.87 "Hg15 mi
2:00 pm59 °FMore clouds than sun.10 mph82%29.88 "Hg15 mi
1:00 pm57 °FCloudy.13 mph82%29.90 "Hg15 mi
12:37 pm54 °FCloudy.10 mph88%29.92 "Hg15 mi
12:00 pm52 °FSprinkles. More clouds than sun.14 mph88%29.93 "Hg10 mi
11:00 am50 °FSprinkles. More clouds than sun.16 mph88%29.94 "Hg15 mi
10:00 am46 °FSprinkles. Fog.13 mph100%29.95 "Hg5 mi
9:18 am46 °FSprinkles. Fog.10 mph93%29.96 "Hg2 mi
9:09 am45 °FSprinkles. Mostly cloudy.12 mph100%29.96 "Hg8 mi
8:13 am43 °FSprinkles. Fog.13 mph100%29.97 "Hg3 mi
8:08 am43 °FSprinkles. Fog.14 mph100%29.97 "Hg3 mi
7:00 am45 °FSprinkles. More clouds than sun.13 mph87%29.95 "Hg8 mi
6:00 am46 °FSprinkles. Overcast.14 mph71%29.93 "Hg15 mi
5:40 am46 °FSprinkles. Overcast.15 mph71%29.93 "Hg15 mi
5:00 am46 °FOvercast.13 mph71%29.94 "Hg15 mi
4:00 am45 °FMostly cloudy.13 mph76%29.94 "Hg15 mi
3:00 am45 °FPassing clouds.16 mph76%29.95 "Hg15 mi
2:00 am46 °FPassing clouds.15 mph71%29.96 "Hg15 mi
1:00 am46 °FPassing clouds.16 mph71%29.98 "Hg15 mi
12:00 am48 °FPassing clouds.18 mph66%29.99 "Hg15 mi
Weather by CustomWeather, © 2017

See weather overviewHow to use our weather pages